カタログに戻る

FENGYUN 1C DEB

運用中PO
NORAD 31725·DEBRIS·🇨🇳 China

打ち上げ May 10, 1999 から Taiyuan Satellite Launch Center

Loading…

次のパス (今後24時間)

TLE

最新Source: Space-Track

元期: Sep 14, 2026, 06:13 UTC

1 31725U 99025CDY 26257.25946985  .00000636  00000-0  10719-2 0  9998
2 31725  99.1807  69.8921 0687579  75.4314 292.1982 12.79862466900053

AllMySatでFENGYUN 1C DEBをリアルタイム追跡

Download on the App Store